This is the latest recevied weather packets stored in our database for station/object N3DOU-1. If no packets are shown the sender has not sent any weather packets the latest 10 day(s).
| Time | Temp. | Humidity | Pressure | Rain* | Wind** | Luminosity | Snow |
|---|---|---|---|---|---|---|---|
| 1777484490 | 16.11° C | 60% | 1012.7 hPa | 0 mm | - | - | - |
| 1777483584 | 16.11° C | 60% | 1013.1 hPa | 0 mm | - | - | - |
| 1777482683 | 16.11° C | 57% | 1013.3 hPa | 0 mm | - | - | - |
| 1777481784 | 16.67° C | 58% | 1013.4 hPa | 0 mm | - | - | - |
| 1777480884 | 16.11° C | 59% | 1013.6 hPa | 0 mm | - | - | - |
| 1777479985 | 16.11° C | 60% | 1013.7 hPa | 0 mm | - | - | - |
| 1777479085 | 16.11° C | 59% | 1014.2 hPa | 0 mm | - | - | - |
| 1777478183 | 16.11° C | 58% | 1014.3 hPa | 0 mm | - | - | - |
| 1777477284 | 15.56° C | 61% | 1014.4 hPa | 0 mm | - | - | - |
| 1777476383 | 15.56° C | 62% | 1014.6 hPa | 0 mm | - | - | - |
| 1777475484 | 15.56° C | 61% | 1014.9 hPa | 0 mm | - | - | - |
| 1777474583 | 15.56° C | 58% | 1014.7 hPa | 0 mm | - | - | - |
| 1777473683 | 15° C | 61% | 1014.5 hPa | 0 mm | - | - | - |
| 1777472785 | 15° C | 59% | 1014.8 hPa | 0 mm | - | - | - |
| 1777471884 | 13.89° C | 62% | 1014.4 hPa | 0 mm | - | - | - |
| 1777470982 | 12.78° C | 66% | 1014.6 hPa | 0 mm | - | - | - |
| 1777470085 | 12.78° C | 69% | 1014.9 hPa | 0 mm | - | - | - |
| 1777469183 | 12.78° C | 65% | 1015.4 hPa | 0 mm | - | - | - |
| 1777468284 | 12.78° C | 67% | 1015.2 hPa | 0 mm | - | - | - |
| 1777467383 | 12.22° C | 68% | 1015 hPa | 0 mm | - | - | - |
| 1777465582 | 11.67° C | 70% | 1015.1 hPa | 0 mm | - | - | - |
| 1777464684 | 11.67° C | 72% | 1015.4 hPa | 0 mm | - | - | - |
| 1777463784 | 11.67° C | 70% | 1015.3 hPa | 0 mm | - | - | - |
| 1777462884 | 11.67° C | 74% | 1015.5 hPa | 0 mm | - | - | - |
| 1777461085 | 11.11° C | 71% | 1015.3 hPa | 0 mm | - | - | - |
* Rain latest hour (hover to see other rain measurements)
** Current wind speed in m/s (hover to see current wind gust speed)